COSMOS 2385

导读 | 星芒AI

COSMOS 2385 是俄罗斯于2003年发射的一颗军用通信卫星,属于GLONASS卫星导航系统的一部分。该卫星运行在中地球轨道,主要用于支持俄罗斯的军事通信和导航能力。COSMOS 2385 在轨期间为俄罗斯军队提供了关键的通信和定位服务。尽管其具体任务细节未公开,但其存在增强了俄罗斯在全球范围内的战略通信能力。该卫星最终退役并脱离轨道,结束了其服役期。

基本信息
目录编号:
27056
目录名称:
COSMOS 2385
国际标识:
2001-058B
轨道中心:
EARTH
卫星名称:
COSMOS 2385
卫星全名:
--
卫星状态:
在轨 (已飞行8788 天)
发射日期:
2001-12-28 UTC
国别 :
俄罗斯(独联体) (CIS)
星等 :
--
轨道信息
数据来源 国际轨道数据 AOE轨道数据
星历时间 2026-01-19T08:03:28+0800
9小时前
查看轨道信息
2026-01-19T07:00:00+0800
10小时前
查看轨道信息
半长轴 7798.768km 7798.764km
偏心率 0.000537 0.0005542
轨道倾角 82.541° 82.541°
近地点辐角 203.782° 204.353°
升交点赤经 315.269° 315.295°
平近点角 229.789° 29.295°
近地点 1416.443km 1416.304km
远地点 1424.819km 1424.95km
周期 114.235分钟 114.235分钟
每日圈数 12.605609 12.605618
详细信息
使用方式:
暂无
2D轨道图
3D轨道图
轨道高度分析图
轨道倾角分析图
轨道综合分析图
查看轨道综合分析图